XM-3 (RHYTHM)

Last updated on Tue Oct 08 2024 00:02:37 GMT+0000 (Coordinated Universal Time)

1 28626U 05008A 24281.16859546 -.00000194 00000+0 00000+0 0 9991 2 28626 0.0208 233.9823 0004365 347.1225 130.7573 1.00270890 36426
UTC large
Height (km)
Speed (km/s)
/
Latitude / Longitude
Inclination (degrees)
Orbital Period (minutes)
Azimuth
Elevation
Range (km)
Doppler Factor

Next 0 passes for location: London (51.5072 / 0.1276)

Sorry there are no passes over London.